Volver al catálogo

ARIANE 44L+ DEB

ActivoGTO
NORAD 23245·DEBRIS·🇫🇷 France

Lanzado Apr 15, 1992 desde Guiana Space Centre

Loading…

TLE

EnvejeciendoSource: Space-Track

Época: Sep 14, 2026, 13:27 UTC

1 23245U 92021P   26257.56085659 -.00000127  00000-0  00000-0 0  9997
2 23245   4.0980  11.7121 7007574 109.9850 333.8406  2.25183065117923

Sigue ARIANE 44L+ DEB en tiempo real con AllMySat

Download on the App Store